GW2134 Weather Reports


time (UTC)temp
F
wind
direction
speed
knots
gust
knots
rain 1hr
in
rain 24hr
in
rain mn
in
humidity
%
barometer
mb
20260507181553 56 355 1.7 5.2 0.00 0.00 0.00 70 1016.1
20260507180059 57 355 3.5 5.2 0.00 0.00 0.00 69 1016.1
20260507174605 58 360 1.7 4.3 0.00 0.00 0.00 67 1015.9
20260507173104 58 324 2.6 4.3 0.00 0.00 0.00 67 1015.8
20260507171611 61 339 0.9 2.6 0.00 0.00 0.00 64 1015.7
20260507170053 62 333 0.0 1.7 0.00 0.00 0.00 61 1015.6
20260507164553 63 0 0.0 1.7 0.00 0.00 0.00 62 1015.6
20260507163054 63 0 0.9 3.5 0.00 0.00 0.00 60 1015.7
20260507161601 64 0 0.9 3.5 0.00 0.00 0.00 54 1015.6
20260507160057 65 178 0.0 7.0 0.00 0.00 0.00 54 1015.5
20260507154553 65 94 1.7 4.3 0.00 0.00 0.00 54 1015.3
20260507153101 65 267 1.7 7.0 0.00 0.00 0.00 56 1015.4
20260507151558 65 0 1.7 5.2 0.00 0.00 0.00 56 1015.4
20260507150104 65 132 3.5 9.6 0.00 0.00 0.00 56 1015.5
20260507144554 65 140 3.5 7.8 0.00 0.00 0.00 57 1015.5
20260507143058 64 167 2.6 6.1 0.00 0.00 0.00 59 1015.6
20260507141553 64 185 1.7 5.2 0.00 0.00 0.00 57 1015.5
20260507140108 65 153 2.6 7.8 0.00 0.00 0.00 57 1015.3
20260507134556 65 169 3.5 8.7 0.00 0.00 0.00 57 1015.5
20260507133101 65 164 4.3 10.4 0.00 0.00 0.00 56 1015.7
20260507131554 67 148 3.5 8.7 0.00 0.00 0.00 52 1015.7
20260507130108 66 0 0.9 5.2 0.00 0.00 0.00 51 1015.7
20260507124613 65 140 4.3 8.7 0.00 0.04 0.00 52 1015.8
20260507123053 65 175 4.3 13.9 0.00 0.04 0.00 54 1015.8
20260507121554 66 167 3.5 8.7 0.00 0.04 0.00 49 1015.7
20260507120054 67 142 2.6 7.0 0.00 0.04 0.00 47 1015.8
20260507114610 69 166 1.7 10.4 0.00 0.14 0.00 44 1015.7
20260507113055 69 100 1.7 7.8 0.00 0.14 0.00 46 1015.6
20260507111553 68 182 1.7 7.0 0.00 0.14 0.00 44 1015.8
20260507110052 66 315 0.9 7.0 0.00 0.14 0.00 46 1015.9
20260507104556 67 134 2.6 6.1 0.00 0.14 0.00 46 1016.3
20260507103055 66 185 1.7 8.7 0.00 0.14 0.00 49 1016.3
20260507101559 65 126 3.5 9.6 0.00 0.14 0.00 49 1016.4
20260507100057 65 176 1.7 7.0 0.00 0.14 0.00 45 1016.4
20260507094552 64 303 1.7 6.1 0.00 0.16 0.00 47 1016.4
20260507093054 64 329 3.5 7.8 0.00 0.16 0.00 51 1016.5
20260507091550 64 130 1.7 6.1 0.00 0.16 0.00 47 1016.4
20260507090105 62 0 0.9 4.3 0.00 0.16 0.00 52 1016.5
20260507084552 62 108 0.0 5.2 0.00 0.22 0.00 49 1016.5
20260507083054 60 138 0.0 4.3 0.00 0.22 0.00 52 1016.4
20260507081553 61 0 0.0 2.6 0.00 0.22 0.00 58 1016.3
20260507074606 58 99 0.9 6.1 0.00 0.24 0.00 59 1016.2
20260507073054 56 119 0.0 3.5 0.00 0.24 0.00 66 1016.1
20260507071555 55 44 0.0 2.6 0.00 0.24 0.00 68 1016.0
20260507070106 54 130 0.9 3.5 0.00 0.24 0.00 68 1016.0
20260507064559 54 117 0.9 4.3 0.00 0.30 0.00 67 1015.7
20260507063058 54 133 0.0 2.6 0.00 0.30 0.00 69 1015.7
20260507061552 52 19 0.0 2.6 0.00 0.30 0.00 71 1015.6
20260507060049 52 0 0.0 2.6 0.00 0.30 0.00 70 1015.4
20260507054554 51 0 0.0 2.6 0.00 0.37 0.00 70 1015.3
20260507053053 51 159 0.0 2.6 0.00 0.37 0.00 69 1015.1
20260507051558 50 0 0.0 3.5 0.00 0.37 0.00 69 1014.9
20260507044559 49 360 2.6 4.3 0.00 0.51 0.00 68 1014.6
20260507043053 48 335 2.6 4.3 0.00 0.51 0.00 69 1014.4
20260507041551 48 334 1.7 3.5 0.00 0.51 0.00 68 1014.3
20260507040051 48 13 1.7 3.5 0.00 0.51 0.00 66 1014.4
20260507034553 49 38 1.7 3.5 0.00 0.66 0.00 66 1014.4
20260507033056 49 227 0.0 1.7 0.00 0.66 0.00 67 1014.3
20260507031557 49 0 0.9 3.5 0.00 0.66 0.00 66 1014.3
20260507030053 49 319 1.7 5.2 0.00 0.66 0.00 69 1014.3
20260507024551 48 341 2.6 7.0 0.00 0.71 0.00 74 1014.4
20260507023051 49 329 2.6 5.2 0.00 0.71 0.00 75 1014.3
20260507021550 49 321 1.7 5.2 0.00 0.71 0.00 75 1014.2
20260507020058 49 328 1.7 7.0 0.00 0.71 0.00 74 1014.3
20260507014553 50 0 0.9 4.3 0.00 0.81 0.00 73 1014.2
20260507013101 50 325 2.6 5.2 0.00 0.81 0.00 73 1014.2
20260507011553 50 342 2.6 4.3 0.00 0.81 0.00 73 1014.3
20260507004551 51 338 2.6 5.2 0.00 0.88 0.00 72 1014.2
20260507003056 51 328 2.6 6.1 0.00 0.88 0.00 73 1014.0
20260507001554 52 338 2.6 5.2 0.00 0.88 0.00 72 1014.2
20260507000052 52 342 1.7 7.0 0.00 0.88 0.00 72 1014.3
20260506234554 52 355 2.6 7.8 0.00 0.94 0.00 72 1014.3
20260506233104 52 11 1.7 5.2 0.00 0.94 0.00 70 1014.4
20260506231600 52 360 1.7 4.3 0.00 0.94 0.00 69 1014.2
20260506230105 53 360 1.7 7.8 0.00 0.94 0.00 69 1014.3
20260506224559 53 360 2.6 6.1 0.00 0.98 0.00 68 1014.5
20260506223059 53 16 1.7 4.3 0.00 0.98 0.00 66 1014.5
20260506221600 53 319 1.7 6.1 0.00 0.98 0.00 63 1014.3
20260506220059 54 22 1.7 7.0 0.00 0.98 0.00 62 1014.4
20260506214601 54 360 0.9 3.5 0.00 0.98 0.98 60 1014.3
20260506213055 55 99 0.0 1.7 0.00 0.98 0.98 59 1014.1
20260506211610 55 181 0.0 5.2 0.00 0.98 0.98 55 1014.2
20260506210058 55 360 2.6 4.3 0.00 0.98 0.98 57 1014.2
20260506204556 55 0 0.0 4.3 0.00 0.98 0.98 59 1013.9
20260506203052 55 360 3.5 13.0 0.00 0.98 0.98 58 1013.4
20260506201553 56 360 6.1 16.5 0.00 0.98 0.98 59 1013.0
20260506200056 57 360 9.6 20.9 0.00 0.98 0.98 58 1013.0
20260506194601 57 360 6.1 15.6 0.00 0.98 0.98 58 1013.0
20260506193103 59 360 7.8 16.5 0.00 0.98 0.98 56 1012.9
20260506191555 58 360 2.6 12.2 0.00 0.98 0.98 56 1012.9
20260506190056 58 360 6.1 16.5 0.00 0.98 0.98 55 1012.6
20260506184550 59 360 2.6 16.5 0.00 0.98 0.98 53 1012.4
20260506183100 58 360 11.3 20.0 0.00 0.98 0.98 52 1012.3